Weather History for EBFS - March, 2014

Change the Weather History Date:

Sunday, March 16, 2014

  Actual Average Record
Temperature  
Mean Temperature 50 °F -  
Max Temperature 59 °F 48 °F 68 °F (2012)
Min Temperature 41 °F 39 °F 31 °F (2015)
Degree Days  
Heating Degree Days 15    
Moisture  
Dew Point 42 °F    
Average Humidity 78    
Maximum Humidity 93    
Minimum Humidity 43    
Precipitation  
Precipitation 0.00 in - - ()
Sea Level Pressure  
Sea Level Pressure 30.19 in    
Wind  
Wind Speed 9 mph ()    
Max Wind Speed 18 mph    
Max Gust Speed -    
Visibility 7.8 miles    
Events      
Averages and records for this station are not official NWS values.
T = Trace of Precipitation, MM = Missing Value Source: Averaged Metar Reports

Daily Weather History Graph

Daily Weather History Graph

Search for Another Location

Airport or City:

Trip Planner

Search our weather history database for the weather conditions in past years. The results will help you decide how hot, cold, wet, or windy it might be!

Date:

Astronomy

Mar. 16, 2014 Rise Set
Actual Time 6:53 AM CET 6:47 PM CET
Civil Twilight 6:21 AM CET 7:20 PM CET
Nautical Twilight 5:43 AM CET 7:58 PM CET
Astronomical Twilight 5:04 AM CET 8:37 PM CET
Moon 6:53 PM CET (3/16) 6:28 AM CET (3/16)
Length of Visible Light 12h 58m
Length of Day
11h 54m
Full, 100% of the Moon is Illuminated
Mar 16
Full
Mar 16
Full
Mar 24
Last Quarter
Mar 30
New
Apr 7
First Quarter

Hourly Weather History & Observations

Time (CET) Temp. Windchill Dew Point Humidity Pressure Visibility Wind Dir Wind Speed Gust Speed Precip Events Conditions
12:00 AM 47 °F - 41 °F 74% 30.23 in 9 mi WSW 11.2 mph - -   Mostly Cloudy
12:25 AM 46.4 °F 40.4 °F 41.0 °F 81% 30.18 in 6.2 mi WSW 13.8 mph - N/A   Scattered Clouds
12:55 AM 46.4 °F 41.1 °F 41.0 °F 81% 30.18 in 6.2 mi West 11.5 mph - N/A   Scattered Clouds
1:00 AM 47 °F - 41 °F 72% 30.22 in 10 mi West 11.2 mph - -   Partly Cloudy
1:25 AM 46.4 °F 41.9 °F 41.0 °F 81% 30.21 in 6.2 mi West 9.2 mph - N/A   Scattered Clouds
1:55 AM 46.4 °F 41.9 °F 41.0 °F 81% 30.21 in 6.2 mi West 9.2 mph - N/A   Scattered Clouds
2:00 AM 46 °F - 41 °F 75% 30.23 in 11 mi West 8.9 mph - -   Scattered Clouds
2:25 AM 44.6 °F 39.7 °F 41.0 °F 87% 30.18 in 6.2 mi West 9.2 mph - N/A   Scattered Clouds
2:55 AM 44.6 °F 39.7 °F 41.0 °F 87% 30.18 in 6.2 mi West 9.2 mph - N/A   Scattered Clouds
3:00 AM 45 °F - 40 °F 78% 30.22 in 11 mi West 8.9 mph - -   Scattered Clouds
3:25 AM 44.6 °F 39.2 °F 41.0 °F 87% 30.18 in 6.2 mi West 10.4 mph - N/A   Scattered Clouds
3:55 AM 44.6 °F 39.7 °F 41.0 °F 87% 30.15 in 6.2 mi West 9.2 mph - N/A   Scattered Clouds
4:00 AM 44 °F - 40 °F 81% 30.20 in 11 mi West 8.9 mph - -   Clear
4:25 AM 42.8 °F 38.0 °F 39.2 °F 87% 30.18 in 6.2 mi West 8.1 mph - N/A   Partly Cloudy
4:55 AM 42.8 °F 38.0 °F 39.2 °F 87% 30.18 in 6.2 mi West 8.1 mph - N/A   Scattered Clouds
5:00 AM 42 °F - 40 °F 89% 30.21 in 11 mi West 6.7 mph - -   Clear
5:25 AM 42.8 °F 38.6 °F 39.2 °F 87% 30.18 in 6.2 mi West 6.9 mph - N/A   Scattered Clouds
5:55 AM 41.0 °F 36.4 °F 39.2 °F 93% 30.18 in 6.2 mi West 6.9 mph - N/A   Scattered Clouds
6:00 AM 41 °F - 39 °F 91% 30.22 in 11 mi West 6.7 mph - -   Clear
6:25 AM 42.8 °F 38.0 °F 39.2 °F 87% 30.18 in 6.2 mi West 8.1 mph - N/A   Partly Cloudy
6:55 AM 42.8 °F 38.0 °F 39.2 °F 87% 30.18 in 5.6 mi West 8.1 mph - N/A   Scattered Clouds
7:00 AM 42 °F - 40 °F 89% 30.22 in 6 mi West 6.7 mph - -   Clear
7:25 AM 42.8 °F 37.5 °F 41.0 °F 93% 30.18 in 5.6 mi West 9.2 mph - N/A   Scattered Clouds
7:55 AM 42.8 °F 38.0 °F 41.0 °F 93% 30.18 in 6.2 mi West 8.1 mph - N/A   Scattered Clouds
8:00 AM 43 °F - 40 °F 87% 30.23 in 6 mi West 8.9 mph - -   Clear
8:25 AM 44.6 °F 39.7 °F 41.0 °F 87% 30.21 in 6.2 mi West 9.2 mph - N/A   Scattered Clouds
8:55 AM 46.4 °F 41.1 °F 42.8 °F 87% 30.21 in 6.2 mi West 11.5 mph - N/A   Scattered Clouds
9:00 AM 46 °F - 42 °F 80% 30.23 in 6 mi West 11.2 mph - -   Scattered Clouds
9:25 AM 46.4 °F 41.5 °F 42.8 °F 87% 30.18 in 6.2 mi West 10.4 mph - N/A   Scattered Clouds
9:39 AM 46.4 °F 41.1 °F 42.8 °F 87% 30.18 in 6.2 mi West 11.5 mph - N/A   Scattered Clouds
9:55 AM 46.4 °F 41.5 °F 42.8 °F 87% 30.18 in 6.2 mi West 10.4 mph - N/A   Mostly Cloudy
10:00 AM 47 °F - 43 °F 82% 30.22 in 7 mi West 11.2 mph - -   Mostly Cloudy
10:25 AM 46.4 °F 41.5 °F 42.8 °F 87% 30.21 in 6.2 mi West 10.4 mph - N/A   Mostly Cloudy
10:55 AM 48.2 °F - 44.6 °F 87% 30.21 in 6.2 mi West 9.2 mph - N/A   Mostly Cloudy
11:00 AM 48 °F - 44 °F 81% 30.22 in 7 mi West 8.9 mph - -   Mostly Cloudy
11:25 AM 48.2 °F - 44.6 °F 87% 30.21 in 6.2 mi WSW 9.2 mph - N/A   Mostly Cloudy
11:55 AM 50.0 °F - 44.6 °F 82% 30.21 in 6.2 mi WSW 10.4 mph - N/A   Mostly Cloudy
12:00 PM 50 °F - 44 °F 73% 30.22 in 7 mi WSW 8.9 mph - -   Mostly Cloudy
12:25 PM 50.0 °F - 44.6 °F 82% 30.21 in 6.2 mi West 11.5 mph - N/A   Mostly Cloudy
12:55 PM 51.8 °F - 44.6 °F 76% 30.21 in 6.2 mi West 11.5 mph - N/A   Mostly Cloudy
1:00 PM 52 °F - 44 °F 67% 30.22 in 9 mi West 11.2 mph - -   Mostly Cloudy
1:04 PM 53.6 °F - 44.6 °F 72% 30.21 in 6.2 mi West 12.7 mph - N/A   Mostly Cloudy
1:25 PM 53.6 °F - 44.6 °F 72% 30.18 in 6.2 mi West 13.8 mph - N/A   Mostly Cloudy
1:47 PM 53.6 °F - 44.6 °F 72% 30.18 in 6.2 mi West 13.8 mph - N/A   Scattered Clouds
1:55 PM 53.6 °F - 44.6 °F 72% 30.18 in 6.2 mi West 13.8 mph - N/A   Scattered Clouds
2:00 PM 54 °F - 44 °F 61% 30.20 in 9 mi West 13.4 mph - -   Partly Cloudy
2:25 PM 55.4 °F - 44.6 °F 67% 30.15 in 6.2 mi West 17.3 mph - N/A   Partly Cloudy
2:55 PM 57.2 °F - 42.8 °F 59% 30.15 in 6.2 mi West 15.0 mph - N/A   Partly Cloudy
3:00 PM 58 °F - 43 °F 47% 30.16 in 12 mi West 13.4 mph - -   Scattered Clouds
3:25 PM 59.0 °F - 42.8 °F 55% 30.15 in 6.2 mi West 16.1 mph - N/A   Partly Cloudy
3:55 PM 59.0 °F - 41.0 °F 51% 30.15 in 6.2 mi West 15.0 mph - N/A   Partly Cloudy
4:00 PM 58 °F - 42 °F 43% 30.15 in 16 mi West 13.4 mph - -   Clear
4:25 PM 57.2 °F - 42.8 °F 59% 30.15 in 6.2 mi West 17.3 mph - N/A   Partly Cloudy
4:55 PM 57.2 °F - 44.6 °F 63% 30.15 in 6.2 mi West 18.4 mph - N/A   Partly Cloudy
5:00 PM 56 °F - 44 °F 54% 30.15 in 16 mi West 17.9 mph - -   Scattered Clouds
5:25 PM 57.2 °F - 44.6 °F 63% 30.15 in 6.2 mi West 16.1 mph - N/A   Partly Cloudy
5:55 PM 55.4 °F - 44.6 °F 67% 30.15 in 6.2 mi West 11.5 mph - N/A   Partly Cloudy
6:00 PM 55 °F - 45 °F 60% 30.17 in 16 mi West 11.2 mph - -   Scattered Clouds
6:25 PM 53.6 °F - 44.6 °F 72% 30.18 in 6.2 mi West 13.8 mph - N/A   Partly Cloudy
6:55 PM 51.8 °F - 44.6 °F 76% 30.18 in 6.2 mi West 8.1 mph - N/A   Partly Cloudy
7:00 PM 52 °F - 44 °F 67% 30.19 in 16 mi West 6.7 mph - -   Clear
7:25 PM 51.8 °F - 44.6 °F 76% 30.18 in 6.2 mi WSW 8.1 mph - N/A   Partly Cloudy
7:55 PM 50.0 °F - 44.6 °F 82% 30.18 in 6.2 mi West 6.9 mph - N/A   Partly Cloudy
8:00 PM 51 °F - 44 °F 71% 30.20 in 16 mi West 6.7 mph - -   Clear
8:25 PM 50.0 °F - 44.6 °F 82% 30.18 in 6.2 mi WSW 4.6 mph - N/A   Partly Cloudy
8:55 PM 48.2 °F - 44.6 °F 87% 30.18 in 6.2 mi West 5.8 mph - N/A   Partly Cloudy
9:00 PM 49 °F - 44 °F 76% 30.21 in 16 mi West 4.5 mph - -   Clear
9:25 PM 48.2 °F - 42.8 °F 82% 30.18 in 6.2 mi West 5.8 mph - N/A   Partly Cloudy
9:55 PM 48.2 °F - 42.8 °F 82% 30.18 in 6.2 mi West 4.6 mph - N/A   Partly Cloudy
10:00 PM 48 °F - 43 °F 77% 30.22 in 16 mi West 4.5 mph - -   Clear
10:25 PM 48.2 °F - 42.8 °F 82% 30.18 in 6.2 mi West 5.8 mph - N/A   Partly Cloudy
10:55 PM 46.4 °F 43.5 °F 42.8 °F 87% 30.18 in 6.2 mi WSW 5.8 mph - N/A   Partly Cloudy
11:00 PM 47 °F - 42 °F 79% 30.22 in 16 mi WSW 4.5 mph - -   Clear
11:25 PM 46.4 °F 42.9 °F 42.8 °F 87% 30.18 in 6.2 mi WSW 6.9 mph - N/A   Partly Cloudy
11:55 PM 46.4 °F 42.9 °F 41.0 °F 81% 30.18 in 6.2 mi West 6.9 mph - N/A   Partly Cloudy